Location: Cardiff
(53.7833°N, 113.6000°W)
Time: 18:03:21
(UTC+00:00)

NOAA 15 - Pass Details

Date: 11 December 2023
Orbit: 796 x 810 km, 98.6° (Epoch: 21 February)

Event Time Altitude Azimuth Distance (km) Brightness Sun altitude
Rises 00:07:29 0° 104° (ESE) 3,323 7.4 -7.4°
Reaches altitude 10° 00:10:42 10° 84° (E) 2,394 6.5 -7.8°
Maximum altitude 00:13:46 16° 48° (NE) 2,012 6.1 -8.2°
Drops below altitude 10° 00:16:50 10° 13° (NNE) 2,396 6.7 -8.6°
Sets 00:20:02 0° 352° (N) 3,328 7.6 -9.0°
